QPF
0.00 0.00 0.00 0.00 0.00 0.00 0.00 0.00 0.00 0.00 0.00 0.00 0.00 0.00 0.00 0.00 0.00 0.00 0.00 0.00 0.00 0.00 0.00 0.00 0.00 0.00 0.01 0.03 0.02 0.00 0.00 0.00 0.00 0.00 0.00 0.00 0.00 0.00 0.00 0.00 0.00 0.00 0.00
0.00 0.00 0.00 0.00 0.00 0.00 0.00 0.00 0.00 0.00 0.00 0.00 0.00 0.01 0.00 0.00 0.00 0.00 0.00 0.00 0.00 0.00 0.00 0.00 0.00 0.00 0.00 0.00 0.00 0.00 0.00 0.00 0.00 0.00 0.00 0.00 0.00 0.00 0.00 0.00 0.00 0.00 0.00
0.00 0.00 0.00 0.00 0.00 0.00 0.00 0.00 0.00 0.00 0.00 0.00 0.00 0.01 0.01 0.00 0.00 0.00 0.00 0.00 0.00 0.00 0.00 0.00 0.00 0.00 0.00 0.00 0.00 0.00 0.00 0.00 0.00 0.00 0.00 0.00 0.00 0.00 0.00 0.00 0.00 0.00 0.00
0.00 0.00 0.00 0.00 0.00 0.00 0.00 0.00 0.00 0.00 0.00 0.00 0.00 0.00 0.00 0.00 0.00 0.00 0.00 0.00 0.00 0.00 0.00 0.00 0.00 0.00 0.00 0.00 0.00 0.00 0.00 0.00 0.00 0.00 0.00 0.00 0.00 0.00 0.00 0.00 0.00 0.00 0.00
0.00 0.00 0.00 0.00 0.00 0.00 0.00 0.00 0.00 0.00 0.00 0.00 0.00 0.00 0.00 0.00 0.00 0.00 0.00 0.00 0.00 0.00 0.00 0.00 0.00 0.00 0.00 0.00 0.00 0.00 0.00 0.00 0.00 0.00 0.00 0.00 0.00 0.00 0.00 0.00 0.00 0.00 0.00
0.00 0.00 0.00 0.00 0.00 0.00 0.00 0.00 0.00 0.00 0.00 0.00 0.00 0.00 0.00 0.00 0.00 0.00 0.00 0.00 0.00 0.00 0.00 0.00 0.00 0.00 0.00 0.00 0.00 0.00 0.00 0.00 0.00 0.00 0.00 0.00 0.00 0.00 0.00 0.00 0.00 0.00 0.00
0.00 0.00 0.00 0.00 0.00 0.00 0.00 0.00 0.00 0.00 0.00 0.00 0.00 0.00 0.00 0.00 0.00 0.00 0.00 0.00 0.00 0.00 0.00 0.00 0.00 0.00 0.00 0.00 0.00 0.00 0.00 0.00 0.00 0.00 0.00 0.00 0.00 0.00 0.00 0.00 0.00 0.01 0.00
0.00 0.01 0.00 0.00 0.00 0.00 0.00 0.00 0.00 0.00 0.00 0.00 0.00 0.00 0.00 0.00 0.00 0.00 0.00 0.00 0.00 0.00 0.00 0.00 0.00 0.00 0.00 0.00 0.00 0.00 0.00 0.00 0.00 0.00 0.00 0.00 0.00 0.00 0.00 0.00 0.00 0.01 0.01
0.00 0.00 0.00 0.00 0.00 0.00 0.00 0.00 0.00 0.00 0.00 0.00 0.00 0.00 0.00 0.00 0.00 0.00 0.00 0.00 0.00 0.00 0.00 0.00 0.00 0.00 0.00 0.00 0.00 0.00 0.00 0.00 0.00 0.00 0.00 0.00 0.00 0.00 0.00 0.00 0.00 0.00 0.00
0.00 0.00 0.00 0.00 0.00 0.00 0.00 0.00 0.00 0.00 0.00 0.00 0.00 0.00 0.00 0.00 0.00 0.00 0.00 0.00 0.00 0.00 0.00 0.00 0.00 0.00 0.00 0.00 0.00 0.00 0.00 0.00 0.00 0.00 0.00 0.00 0.00 0.00 0.00 0.00 0.00 0.00 0.00
0.00 0.00 0.00 0.00 0.00 0.00 0.00 0.00 0.00 0.00 0.00 0.00 0.00 0.00 0.00 0.00 0.00 0.00 0.00 0.00 0.00 0.00 0.00 0.00 0.00 0.00 0.00 0.00 0.00 0.00 0.00 0.00 0.00 0.00 0.00 0.00 0.00 0.00 0.00 0.00 0.00 0.00 0.00
0.00 0.00 0.00 0.01 0.00 0.00 0.00 0.00 0.00 0.00 0.00 0.00 0.00 0.00 0.00 0.00 0.00 0.00 0.00 0.00 0.00 0.00 0.00 0.00 0.00 0.00 0.00 0.00 0.00 0.00 0.00 0.00 0.00 0.00 0.00 0.00 0.00 0.00 0.00 0.00 0.00 0.00 0.00
0.00 0.01 0.00 0.00 0.00 0.00 0.00 0.00 0.00 0.00 0.00 0.00 0.00 0.00 0.00 0.00 0.00 0.00 0.00 0.00 0.00 0.00 0.00 0.00 0.00 0.00 0.00 0.00 0.00 0.00 0.00 0.00 0.00 0.00 0.00 0.00 0.00 0.00 0.00 0.00 0.00 0.00 0.00
0.00 0.00 0.00 0.00 0.00 0.00 0.00 0.00 0.00 0.00 0.00 0.00 0.00 0.00 0.00 0.00 0.00 0.00 0.00 0.00 0.00 0.00 0.00 0.00 0.00 0.00 0.00 0.00 0.00 0.00 0.00 0.00 0.00 0.00 0.00 0.00 0.00 0.00 0.00 0.00 0.00 0.00 0.00
0.00 0.00 0.00 0.00 0.00 0.00 0.00 0.00 0.00 0.00 0.00 0.00 0.00 0.00 0.00 0.00 0.00 0.00 0.00 0.00 0.00 0.00 0.00 0.00 0.00 0.00 0.00 0.00 0.00 0.00 0.00 0.00 0.00 0.00 0.00 0.00 0.00 0.00 0.00 0.00 0.00 0.00 0.00
0.00 0.00 0.00 0.00 0.00 0.01 0.00 0.00 0.00 0.00 0.00 0.00 0.00 0.00 0.00 0.00 0.00 0.00 0.00 0.00 0.00 0.00 0.00 0.00 0.00 0.00 0.00 0.00 0.00 0.00 0.00 0.00 0.00 0.00 0.00 0.00 0.00 0.00 0.00 0.00 0.00 0.00 0.00
0.00 0.00 0.00 0.00 0.00 0.02 0.02 0.00 0.01 0.01 0.00 0.00 0.00 0.00 0.00 0.00 0.00 0.00 0.00 0.00 0.00 0.00 0.00 0.00 0.00 0.00 0.00 0.00 0.00 0.00 0.00 0.00 0.00 0.00 0.00 0.00 0.00 0.00 0.00 0.00 0.00 0.00 0.00
0.00 0.00 0.00 0.00 0.00 0.01 0.03 0.02 0.01 0.01 0.00 0.00 0.00 0.00 0.00 0.00 0.00 0.00 0.00 0.00 0.00 0.00 0.00 0.00 0.00 0.00 0.00 0.00 0.00 0.00 0.00 0.00 0.00 0.00 0.00 0.00 0.00 0.00 0.00 0.00 0.00 0.00 0.00
0.00 0.00 0.00 0.00 0.00 0.00 0.03 0.02 0.01 0.01 0.00 0.01 0.00 0.00 0.00 0.00 0.00 0.00 0.00 0.00 0.00 0.00 0.00 0.00 0.00 0.00 0.00 0.00 0.00 0.00 0.00 0.00 0.00 0.00 0.00 0.00 0.00 0.00 0.00 0.00 0.00 0.00 0.00
0.00 0.00 0.00 0.00 0.00 0.00 0.03 0.01 0.01 0.00 0.00 0.01 0.00 0.00 0.00 0.00 0.00 0.00 0.00 0.00 0.00 0.00 0.00 0.00 0.00 0.00 0.00 0.00 0.00 0.00 0.00 0.00 0.00 0.00 0.00 0.00 0.00 0.00 0.00 0.00 0.00 0.00 0.00
0.00 0.00 0.00 0.00 0.00 0.02 0.01 0.00 0.00 0.00 0.00 0.01 0.00 0.00 0.00 0.00 0.00 0.00 0.00 0.00 0.00 0.00 0.00 0.00 0.00 0.00 0.00 0.00 0.00 0.00 0.00 0.00 0.00 0.00 0.00 0.00 0.00 0.00 0.00 0.00 0.00 0.00 0.00
0.00 0.00 0.00 0.00 0.00 0.00 0.00 0.01 0.03 0.05 0.02 0.01 0.01 0.00 0.00 0.00 0.00 0.00 0.00 0.00 0.00 0.00 0.00 0.00 0.00 0.00 0.00 0.00 0.00 0.00 0.00 0.00 0.00 0.00 0.00 0.00 0.00 0.00 0.00 0.00 0.00 0.00 0.00
0.00 0.00 0.00 0.00 0.00 0.00 0.02 0.02 0.04 0.07 0.03 0.01 0.01 0.00 0.01 0.00 0.00 0.00 0.00 0.00 0.00 0.00 0.00 0.00 0.00 0.00 0.00 0.00 0.00 0.00 0.00 0.00 0.00 0.00 0.00 0.00 0.00 0.00 0.00 0.00 0.00 0.00 0.00
0.00 0.00 0.00 0.00 0.00 0.00 0.01 0.00 0.02 0.03 0.02 0.02 0.02 0.02 0.02 0.00 0.00 0.00 0.00 0.00 0.00 0.00 0.00 0.00 0.00 0.00 0.00 0.00 0.00 0.00 0.00 0.00 0.00 0.00 0.00 0.00 0.00 0.00 0.00 0.00 0.00 0.00 0.00
0.00 0.00 0.00 0.00 0.00 0.00 0.01 0.01 0.03 0.01 0.01 0.02 0.03 0.03 0.01 0.00 0.00 0.00 0.00 0.00 0.00 0.00 0.00 0.00 0.00 0.00 0.00 0.00 0.00 0.00 0.00 0.00 0.00 0.00 0.00 0.00 0.00 0.00 0.00 0.00 0.00 0.00 0.00
0.00 0.00 0.00 0.00 0.00 0.00 0.01 0.00 0.01 0.00 0.01 0.01 0.01 0.01 0.01 0.01 0.00 0.00 0.00 0.00 0.00 0.00 0.00 0.00 0.00 0.00 0.00 0.00 0.00 0.00 0.00 0.00 0.00 0.00 0.00 0.00 0.00 0.00 0.00 0.00 0.00 0.00 0.00
MSLP
1012.81 1012.58 1012.86 1013.17 1013.39 1013.76 1014.03 1014.24 1014.43 1014.66 1014.84 1015.06 1015.21 1015.37 1015.61 1015.79 1016.01 1016.21 1016.36 1016.53 1016.59 1016.65 1016.70 1016.69 1016.70 1016.60 1016.73 1016.84 1016.91 1017.00 1016.97 1017.02 1017.25 1017.41 1017.55 1017.57 1017.46 1017.38 1017.44 1017.52 1017.32 1017.26 1017.40
1012.28 1012.56 1012.76 1013.08 1013.35 1013.78 1014.09 1014.36 1014.61 1014.81 1014.99 1015.17 1015.31 1015.53 1015.70 1015.94 1016.14 1016.36 1016.48 1016.62 1016.77 1016.80 1016.86 1016.97 1016.97 1016.90 1016.99 1017.03 1017.04 1017.03 1017.08 1017.17 1017.29 1017.45 1017.62 1017.79 1017.77 1017.53 1017.45 1017.54 1017.55 1017.43 1017.45
1012.18 1012.64 1012.89 1013.23 1013.41 1013.81 1014.22 1014.46 1014.69 1014.91 1015.18 1015.34 1015.44 1015.68 1015.90 1016.11 1016.29 1016.46 1016.66 1016.83 1016.86 1017.01 1017.04 1017.05 1017.04 1017.15 1017.20 1017.17 1017.22 1017.23 1017.23 1017.27 1017.33 1017.41 1017.60 1017.77 1017.81 1017.63 1017.57 1017.63 1017.47 1017.55 1017.47
1011.87 1012.55 1012.92 1013.31 1013.55 1013.87 1014.24 1014.55 1014.86 1015.04 1015.20 1015.49 1015.70 1015.82 1016.02 1016.19 1016.45 1016.66 1016.86 1017.00 1017.09 1017.21 1017.20 1017.27 1017.24 1017.23 1017.33 1017.33 1017.35 1017.31 1017.30 1017.32 1017.37 1017.49 1017.49 1017.44 1017.64 1017.62 1017.60 1017.68 1017.50 1017.48 1017.49
1011.94 1012.57 1012.96 1013.25 1013.49 1013.95 1014.31 1014.60 1014.87 1015.15 1015.39 1015.56 1015.77 1015.96 1016.11 1016.36 1016.56 1016.74 1017.01 1017.24 1017.29 1017.27 1017.38 1017.37 1017.36 1017.46 1017.52 1017.43 1017.51 1017.45 1017.38 1017.37 1017.42 1017.40 1017.42 1017.55 1017.62 1017.51 1017.59 1017.64 1017.59 1017.43 1017.42
1011.78 1012.36 1012.86 1013.12 1013.52 1013.97 1014.28 1014.53 1014.87 1015.16 1015.42 1015.70 1015.89 1016.10 1016.21 1016.36 1016.59 1016.84 1017.09 1017.27 1017.29 1017.36 1017.33 1017.32 1017.42 1017.59 1017.65 1017.65 1017.59 1017.50 1017.48 1017.51 1017.46 1017.40 1017.43 1017.43 1017.54 1017.48 1017.57 1017.55 1017.36 1017.24 1017.26
1011.74 1012.17 1012.71 1012.93 1013.32 1013.80 1014.21 1014.41 1014.72 1015.12 1015.41 1015.63 1015.90 1016.09 1016.28 1016.49 1016.57 1016.83 1017.04 1017.16 1017.24 1017.33 1017.35 1017.36 1017.47 1017.61 1017.65 1017.65 1017.67 1017.68 1017.66 1017.67 1017.53 1017.45 1017.40 1017.58 1017.46 1017.30 1017.43 1017.28 1017.19 1017.11 1017.03
1011.64 1012.15 1012.51 1012.84 1013.23 1013.68 1014.10 1014.36 1014.64 1014.97 1015.34 1015.68 1015.84 1016.12 1016.26 1016.44 1016.58 1016.77 1017.01 1017.09 1017.21 1017.30 1017.33 1017.40 1017.54 1017.67 1017.67 1017.75 1017.80 1017.79 1017.78 1017.88 1017.77 1017.76 1017.76 1017.76 1017.52 1017.31 1017.20 1017.20 1017.22 1017.09 1016.88
1011.32 1012.08 1012.47 1012.84 1013.33 1013.75 1014.12 1014.44 1014.60 1014.95 1015.23 1015.62 1015.85 1016.10 1016.31 1016.27 1016.28 1016.72 1017.01 1017.13 1017.12 1017.30 1017.45 1017.59 1017.66 1017.72 1017.77 1017.91 1017.89 1017.89 1017.91 1017.75 1017.98 1017.94 1017.80 1017.86 1017.63 1017.53 1017.25 1017.15 1017.20 1017.22 1016.99
1011.62 1012.01 1012.40 1012.84 1013.25 1013.67 1014.08 1014.46 1014.66 1014.94 1015.27 1015.53 1015.83 1016.17 1016.28 1016.28 1016.40 1016.72 1016.97 1017.17 1017.32 1017.42 1017.64 1017.71 1017.75 1017.81 1017.89 1017.95 1017.87 1017.90 1017.88 1017.86 1017.98 1018.19 1018.13 1017.88 1017.57 1017.48 1017.27 1017.17 1017.04 1017.15 1017.16
1011.50 1011.79 1012.13 1012.68 1013.16 1013.70 1014.14 1014.49 1014.74 1014.94 1015.25 1015.55 1015.90 1016.23 1016.39 1016.55 1016.59 1017.02 1017.16 1017.30 1017.49 1017.57 1017.68 1017.85 1017.86 1018.04 1018.05 1018.09 1018.00 1017.90 1017.89 1018.03 1018.14 1018.27 1018.29 1017.86 1017.61 1017.37 1017.45 1017.61 1017.34 1017.34 1017.48
1011.34 1011.63 1011.96 1012.51 1012.86 1013.37 1013.77 1014.42 1014.83 1015.06 1015.36 1015.60 1015.90 1016.12 1016.60 1016.77 1016.89 1017.01 1017.18 1017.38 1017.48 1017.75 1017.70 1017.90 1017.97 1018.01 1018.13 1018.20 1018.22 1018.08 1018.07 1018.09 1018.29 1018.52 1018.22 1017.96 1017.65 1017.62 1017.77 1017.84 1017.81 1017.88 1017.90
1010.85 1011.21 1011.57 1012.02 1012.34 1012.75 1013.26 1014.02 1014.66 1015.09 1015.29 1015.62 1015.81 1015.97 1016.38 1016.73 1017.05 1017.19 1017.43 1017.58 1017.67 1017.90 1017.97 1018.05 1018.12 1018.21 1018.18 1018.24 1018.34 1018.26 1018.25 1018.25 1018.62 1018.65 1018.47 1018.19 1018.04 1018.07 1018.21 1018.22 1018.35 1018.34 1018.45
1010.19 1010.37 1010.86 1011.43 1011.98 1012.40 1012.80 1013.34 1014.03 1014.67 1015.01 1015.41 1015.67 1015.86 1016.28 1016.65 1016.87 1017.29 1017.55 1017.58 1017.85 1018.12 1018.19 1018.28 1018.39 1018.50 1018.28 1018.28 1018.32 1018.34 1018.31 1018.46 1018.75 1018.94 1018.82 1018.59 1018.49 1018.62 1018.68 1018.75 1018.92 1018.76 1018.90
1009.90 1009.88 1010.04 1010.66 1011.28 1012.04 1012.51 1012.72 1013.28 1013.76 1014.37 1014.65 1015.02 1015.34 1015.76 1016.20 1016.58 1016.90 1017.16 1017.34 1017.78 1018.00 1018.18 1018.44 1018.60 1018.60 1018.52 1018.40 1018.41 1018.50 1018.42 1018.61 1018.90 1019.17 1019.17 1018.81 1019.05 1019.06 1019.01 1019.10 1019.27 1019.14 1019.18
1009.14 1009.39 1009.61 1010.18 1010.70 1011.26 1011.90 1012.33 1012.50 1013.17 1013.68 1014.16 1014.52 1014.86 1015.14 1015.50 1016.12 1016.57 1017.04 1017.47 1017.61 1017.75 1018.17 1018.52 1018.76 1018.88 1018.86 1018.72 1018.79 1018.71 1018.68 1018.57 1019.03 1019.28 1019.26 1019.18 1019.46 1019.35 1019.36 1019.23 1019.55 1019.45 1019.39
1008.72 1008.62 1009.04 1009.52 1010.09 1010.74 1011.31 1011.72 1012.00 1012.72 1013.17 1013.79 1013.87 1014.36 1014.73 1015.24 1015.86 1016.38 1016.92 1017.48 1017.75 1018.01 1018.28 1018.54 1018.83 1018.95 1019.09 1019.07 1019.06 1018.80 1018.71 1018.78 1018.94 1019.32 1019.51 1019.58 1019.79 1019.70 1019.47 1019.36 1019.65 1019.52 1019.55
1008.24 1008.54 1008.40 1008.79 1009.53 1010.17 1010.98 1011.51 1011.66 1011.97 1012.72 1013.20 1013.30 1013.81 1014.34 1014.93 1015.47 1016.14 1016.81 1017.39 1017.78 1018.24 1018.57 1018.83 1019.03 1019.29 1019.46 1019.39 1019.21 1019.09 1018.96 1018.81 1019.06 1019.38 1019.45 1019.70 1019.93 1019.86 1019.74 1019.84 1019.88 1019.78 1019.66
1007.52 1007.87 1008.10 1008.17 1008.76 1009.39 1010.27 1010.98 1011.36 1011.70 1012.39 1012.56 1012.79 1013.38 1014.01 1014.65 1015.26 1015.64 1016.53 1017.34 1017.77 1018.29 1018.71 1018.95 1019.32 1019.45 1019.74 1019.55 1019.29 1019.14 1019.10 1019.04 1019.11 1019.17 1019.59 1019.88 1019.85 1019.94 1020.18 1020.24 1020.27 1020.17 1020.05
1007.02 1007.25 1007.67 1007.69 1008.13 1008.72 1009.46 1010.31 1011.15 1011.83 1012.40 1012.44 1012.72 1013.04 1013.77 1014.52 1015.27 1015.69 1016.61 1017.22 1017.69 1018.25 1018.69 1019.04 1019.33 1019.61 1019.75 1019.77 1019.53 1019.35 1019.34 1019.11 1019.22 1019.44 1019.68 1019.75 1019.94 1020.11 1020.28 1020.38 1020.49 1020.53 1020.36
1006.76 1006.84 1007.05 1007.53 1007.62 1008.35 1009.40 1010.17 1010.94 1011.52 1012.06 1012.49 1012.76 1013.11 1013.74 1014.44 1015.02 1015.66 1016.50 1017.13 1017.73 1018.01 1018.45 1018.94 1019.38 1019.84 1020.04 1019.87 1019.93 1019.96 1019.81 1019.68 1019.56 1019.63 1019.83 1019.95 1020.03 1020.17 1020.25 1020.43 1020.51 1020.66 1020.65
1006.74 1006.39 1006.60 1006.91 1007.16 1007.51 1008.14 1009.04 1009.94 1010.95 1011.88 1012.39 1012.89 1013.39 1013.74 1014.25 1015.01 1015.80 1016.35 1017.08 1017.65 1017.99 1018.45 1018.89 1019.30 1020.02 1020.31 1020.22 1020.48 1020.72 1020.68 1020.52 1020.11 1020.08 1020.11 1020.27 1020.62 1020.58 1020.56 1020.56 1020.55 1020.57 1020.50
1006.22 1006.06 1005.98 1006.33 1006.74 1006.90 1007.56 1008.81 1010.18 1011.19 1012.17 1012.83 1013.15 1013.52 1013.84 1014.28 1014.80 1015.49 1016.17 1016.91 1017.72 1017.85 1018.42 1018.94 1019.25 1019.68 1020.33 1020.63 1020.49 1020.63 1021.10 1021.42 1021.38 1020.62 1020.60 1020.58 1020.80 1021.04 1021.05 1020.86 1020.63 1020.56 1020.40
1005.79 1005.72 1005.57 1005.65 1006.29 1006.45 1007.01 1007.90 1008.93 1009.98 1011.44 1011.98 1012.43 1013.06 1013.70 1014.35 1014.92 1015.43 1016.11 1016.85 1017.60 1018.01 1018.36 1018.87 1019.16 1019.52 1019.84 1020.52 1020.68 1020.65 1020.89 1021.25 1021.70 1021.75 1021.16 1021.02 1021.04 1021.10 1021.05 1020.91 1020.79 1020.55 1020.28
1004.96 1005.15 1005.39 1005.52 1005.46 1006.09 1006.39 1006.99 1008.21 1009.51 1010.89 1011.97 1012.61 1013.22 1013.61 1014.55 1014.90 1015.52 1016.09 1016.94 1017.71 1018.18 1018.42 1018.72 1019.15 1019.49 1019.81 1020.43 1020.75 1021.10 1021.24 1021.39 1021.67 1022.15 1022.26 1021.70 1021.30 1021.08 1021.10 1020.97 1020.70 1020.65 1020.36
1004.70 1004.85 1004.87 1005.02 1005.30 1005.33 1006.13 1006.67 1007.51 1008.73 1010.36 1011.91 1012.77 1013.24 1013.39 1014.46 1014.99 1015.57 1016.19 1016.86 1017.52 1017.96 1018.60 1018.71 1019.16 1019.51 1019.97 1020.35 1020.77 1021.09 1021.37 1021.73 1022.05 1022.41 1022.70 1022.34 1022.08 1021.39 1021.11 1020.81 1020.64 1020.70 1020.54
Thickness
5757 5760 5758 5756 5756 5754 5751 5750 5749 5748 5748 5747 5745 5745 5743 5742 5739 5737 5735 5733 5732 5731 5730 5729 5729 5730 5729 5728 5728 5727 5727 5727 5725 5723 5722 5721 5721 5721 5720 5719 5721 5721 5719
5761 5758 5756 5755 5753 5750 5747 5746 5745 5743 5743 5742 5741 5740 5739 5737 5736 5733 5732 5730 5728 5728 5727 5726 5725 5725 5724 5724 5724 5725 5725 5724 5723 5721 5718 5717 5715 5716 5717 5715 5715 5715 5714
5759 5754 5753 5751 5751 5748 5744 5743 5742 5740 5737 5737 5737 5735 5733 5732 5730 5729 5727 5726 5725 5723 5723 5723 5722 5720 5720 5721 5720 5720 5720 5720 5719 5718 5716 5714 5713 5713 5713 5711 5712 5711 5711
5757 5752 5751 5748 5747 5744 5741 5739 5736 5735 5734 5732 5730 5729 5728 5727 5725 5723 5722 5721 5720 5719 5719 5717 5718 5718 5717 5716 5715 5716 5716 5716 5715 5714 5715 5712 5711 5710 5709 5707 5709 5709 5708
5754 5749 5747 5746 5744 5740 5737 5735 5733 5730 5729 5728 5726 5725 5724 5722 5720 5719 5717 5715 5715 5715 5713 5714 5714 5712 5711 5712 5711 5712 5713 5713 5712 5712 5711 5710 5707 5707 5705 5704 5704 5705 5705
5751 5747 5744 5743 5740 5736 5734 5732 5730 5727 5725 5723 5721 5720 5719 5718 5715 5714 5712 5711 5711 5710 5710 5710 5709 5707 5707 5706 5707 5708 5708 5707 5708 5709 5708 5705 5705 5702 5701 5701 5702 5702 5702
5748 5745 5741 5740 5737 5733 5730 5730 5728 5724 5722 5720 5718 5716 5714 5712 5711 5709 5708 5709 5708 5707 5707 5707 5705 5704 5703 5704 5703 5703 5703 5703 5704 5706 5702 5701 5701 5700 5697 5698 5698 5699 5699
5745 5740 5738 5737 5735 5731 5728 5726 5725 5722 5719 5716 5714 5712 5710 5709 5708 5707 5706 5706 5704 5704 5704 5703 5701 5700 5701 5700 5699 5700 5700 5699 5699 5699 5697 5695 5693 5694 5695 5693 5693 5694 5695
5742 5737 5736 5733 5730 5727 5723 5721 5721 5718 5716 5712 5710 5708 5707 5707 5707 5704 5703 5702 5703 5701 5700 5698 5697 5697 5697 5695 5696 5696 5695 5696 5694 5693 5692 5690 5687 5685 5688 5689 5687 5687 5689
5737 5735 5732 5729 5726 5723 5720 5717 5716 5713 5711 5709 5706 5704 5703 5704 5703 5700 5699 5698 5697 5697 5695 5694 5693 5693 5692 5691 5692 5691 5691 5691 5691 5686 5685 5685 5685 5682 5682 5681 5683 5682 5681
5731 5731 5729 5725 5722 5719 5716 5713 5711 5710 5707 5705 5702 5701 5700 5699 5698 5694 5693 5692 5691 5691 5690 5688 5689 5687 5687 5686 5687 5687 5687 5686 5685 5682 5679 5679 5680 5681 5678 5674 5676 5676 5674
5724 5726 5725 5722 5720 5717 5713 5709 5706 5705 5703 5701 5699 5698 5694 5693 5692 5691 5690 5687 5687 5684 5685 5683 5683 5683 5682 5682 5682 5682 5682 5681 5679 5674 5675 5673 5675 5674 5671 5670 5668 5667 5666
5719 5722 5723 5721 5719 5715 5712 5707 5703 5699 5699 5696 5695 5694 5692 5689 5686 5686 5684 5682 5681 5679 5679 5677 5677 5676 5677 5677 5675 5675 5675 5675 5670 5668 5666 5666 5666 5664 5662 5661 5659 5658 5656
5719 5719 5721 5720 5716 5714 5711 5706 5703 5698 5696 5693 5691 5690 5687 5685 5684 5682 5679 5677 5675 5672 5672 5671 5671 5669 5670 5670 5669 5667 5667 5667 5663 5660 5657 5657 5657 5654 5652 5651 5648 5649 5646
5715 5719 5718 5717 5715 5712 5708 5706 5703 5699 5694 5693 5691 5689 5685 5683 5682 5680 5676 5674 5670 5668 5667 5665 5663 5662 5662 5662 5660 5659 5658 5656 5654 5650 5648 5649 5645 5644 5643 5641 5638 5639 5637
5714 5716 5718 5713 5710 5708 5706 5703 5703 5699 5693 5691 5689 5686 5685 5683 5680 5676 5673 5669 5667 5666 5662 5658 5656 5654 5654 5653 5650 5650 5649 5649 5644 5642 5641 5639 5634 5634 5632 5633 5629 5628 5627
5710 5714 5716 5713 5709 5705 5703 5701 5700 5693 5692 5688 5687 5684 5683 5680 5675 5672 5668 5663 5660 5657 5655 5653 5650 5648 5646 5643 5642 5642 5641 5640 5638 5634 5632 5629 5625 5623 5624 5624 5619 5619 5618
5710 5706 5713 5715 5708 5703 5698 5694 5694 5690 5689 5686 5685 5682 5680 5676 5672 5668 5663 5658 5653 5649 5646 5644 5642 5638 5635 5634 5633 5633 5633 5632 5630 5626 5625 5621 5617 5616 5615 5611 5609 5608 5608
5709 5708 5706 5710 5708 5703 5696 5692 5691 5686 5684 5684 5683 5680 5677 5671 5668 5666 5658 5651 5646 5642 5638 5636 5632 5630 5626 5626 5627 5625 5625 5624 5621 5620 5616 5612 5611 5609 5605 5599 5597 5597 5595
5706 5704 5701 5704 5706 5704 5696 5690 5685 5680 5676 5675 5676 5676 5672 5666 5661 5658 5651 5646 5641 5637 5632 5628 5625 5620 5618 5616 5618 5617 5615 5616 5613 5610 5607 5604 5601 5598 5595 5590 5587 5584 5582
5697 5697 5697 5694 5699 5698 5692 5684 5678 5675 5672 5669 5669 5668 5664 5659 5655 5650 5644 5639 5634 5631 5626 5622 5616 5611 5607 5606 5605 5603 5603 5602 5602 5600 5597 5594 5590 5587 5582 5579 5576 5573 5570
5687 5693 5692 5691 5692 5694 5695 5689 5679 5671 5665 5665 5661 5658 5655 5651 5647 5641 5636 5632 5627 5623 5619 5614 5609 5601 5597 5594 5591 5587 5586 5587 5588 5587 5584 5581 5575 5572 5569 5565 5563 5560 5559
5683 5685 5689 5688 5687 5690 5688 5679 5668 5662 5655 5653 5652 5649 5647 5644 5642 5635 5630 5624 5618 5617 5611 5606 5601 5596 5588 5583 5582 5580 5575 5573 5565 5572 5569 5567 5562 5557 5553 5551 5549 5547 5546
5674 5678 5682 5684 5680 5684 5681 5675 5671 5667 5656 5652 5649 5644 5639 5636 5633 5628 5623 5616 5611 5608 5603 5598 5594 5589 5584 5577 5573 5571 5566 5561 5554 5552 5554 5551 5547 5544 5541 5538 5536 5534 5533
5669 5670 5671 5672 5676 5675 5676 5673 5667 5659 5647 5642 5638 5633 5631 5625 5623 5618 5614 5608 5602 5598 5595 5591 5586 5581 5576 5569 5563 5558 5554 5548 5543 5537 5532 5532 5533 5530 5527 5524 5523 5520 5518
5658 5659 5661 5662 5663 5669 5666 5665 5662 5655 5641 5632 5626 5623 5624 5617 5614 5609 5605 5600 5594 5590 5585 5583 5578 5572 5565 5560 5553 5548 5542 5536 5530 5524 5518 5517 5517 5519 5516 5511 5509 5505 5503